Wind_Speed
2 4 6 8 9 11 13 15 16 18 19 21 22 22 23 23 24 25 25 26 27 28 28 29 29 31 31 31 31 31 32 32 32 33 33 33 33 33 32 32 32 32 32 32
2 4 6 7 8 10 11 13 15 16 18 19 21 21 21 22 22 23 24 24 25 27 27 27 29 30 31 32 32 32 32 32 32 33 33 33 33 33 33 33 33 34 33 33
2 2 5 6 8 8 10 12 14 15 16 17 19 20 20 21 22 22 23 24 24 24 26 27 28 30 31 32 33 33 33 33 33 34 34 35 35 34 35 34 34 35 35 34
2 0 3 5 7 8 9 10 12 14 15 15 16 18 19 19 20 21 22 23 24 24 25 27 28 29 31 32 33 33 33 34 34 34 35 36 36 35 35 36 36 36 36 36
3 1 1 3 5 6 8 9 10 12 14 14 15 16 17 18 19 20 21 21 23 24 25 27 28 28 30 31 32 33 33 34 34 34 35 36 36 36 37 36 36 36 36 36
3 1 1 2 4 5 7 8 9 10 12 14 14 15 15 16 18 19 20 21 22 23 25 26 27 28 30 31 32 33 34 35 35 35 35 36 36 37 37 37 36 36 36 36
3 1 0 2 3 5 6 8 9 10 11 12 13 14 15 16 17 19 20 21 22 23 24 25 26 28 29 31 32 33 35 35 35 35 36 36 36 36 37 36 36 37 37 38
3 2 1 2 3 5 6 7 8 10 11 12 13 14 14 15 17 19 20 21 23 24 24 25 26 27 28 30 32 33 34 35 35 36 36 36 36 36 37 38 38 39 40 41
3 2 2 3 4 5 6 7 8 9 11 12 13 14 14 16 17 19 20 21 22 23 24 25 26 27 28 30 31 32 33 34 35 35 35 35 36 37 38 38 40 41 42 42
4 3 3 4 5 6 6 7 9 10 11 13 14 15 16 16 18 19 21 22 23 24 25 26 27 28 29 29 30 32 32 33 33 34 35 36 37 38 38 39 40 41 42 42
6 5 4 5 6 6 8 9 10 11 12 13 14 14 15 17 18 19 21 22 23 24 25 26 27 27 28 28 29 31 32 33 33 34 35 36 37 38 39 40 41 42 41 42
8 8 7 7 7 8 9 10 11 12 13 14 15 14 15 16 17 18 20 21 22 23 24 24 25 25 27 28 29 31 32 32 33 34 35 36 37 38 39 40 41 42 42 42
10 10 10 10 10 11 11 12 13 14 14 15 15 15 16 17 18 19 20 20 21 22 23 23 24 25 26 27 29 30 32 33 34 35 36 37 38 39 40 41 42 42 43 43
12 12 12 13 13 14 13 14 15 15 15 16 15 15 16 18 19 19 19 20 21 22 23 24 25 25 26 27 29 31 32 33 35 36 37 38 39 40 41 42 42 43 43 44
15 15 15 15 16 16 16 16 17 17 17 17 16 17 17 19 20 21 21 21 22 23 24 24 25 26 27 28 30 31 33 34 36 37 38 38 39 40 41 42 44 44 45 45
19 19 19 18 19 19 18 18 19 19 19 19 19 18 20 21 21 21 21 21 22 23 24 25 26 27 28 29 30 31 33 34 36 38 39 40 40 41 41 43 44 45 45 46
21 22 22 21 21 21 20 19 21 21 21 22 21 21 22 22 22 22 23 23 24 25 26 27 28 29 29 30 31 32 34 36 37 39 40 41 41 42 43 43 45 46 46 47
24 24 25 24 24 24 22 22 22 23 23 23 23 23 24 24 24 24 25 26 26 27 28 28 29 31 31 32 33 34 35 36 38 39 40 42 43 43 44 45 45 46 46 46
26 26 26 26 26 25 24 23 24 25 24 25 25 26 26 26 26 26 27 28 28 29 30 31 32 33 33 34 34 35 36 37 38 39 40 41 42 43 44 45 45 45 45 45
27 27 28 28 28 27 25 26 26 27 26 26 27 27 27 27 27 28 29 29 30 31 32 33 33 34 35 35 36 36 37 38 39 40 40 41 42 43 44 45 45 45 45 45
29 29 29 29 29 28 27 28 28 28 28 28 28 28 29 30 30 30 31 32 32 33 34 34 35 36 36 37 37 38 38 38 39 40 41 42 42 43 44 45 45 45 45 45
32 31 30 30 31 30 30 30 30 30 30 30 30 31 31 32 32 32 32 33 34 35 35 36 37 37 38 38 38 39 39 40 40 41 42 42 43 44 44 45 45 45 45 46
34 34 33 33 32 32 32 32 33 32 32 32 32 32 33 33 34 34 34 35 36 37 37 37 38 38 39 39 40 40 41 41 42 42 43 44 44 45 45 45 45 46 47 47
36 35 35 35 34 35 35 35 36 35 35 34 34 34 34 34 35 36 36 37 38 38 38 39 39 40 40 41 42 43 43 44 44 44 44 45 45 46 46 46 46 47 48 49
37 37 37 37 37 38 37 37 37 37 36 36 36 36 36 36 37 37 38 39 39 39 39 40 41 42 42 43 44 45 45 45 45 45 45 46 46 47 46 46 47 48 49 50
37 38 39 39 39 40 39 38 38 38 38 38 38 38 38 38 38 39 39 40 40 41 41 42 43 43 44 45 46 46 46 46 46 46 46 46 47 47 47 48 48 49 50 50
Wind_Direction
182 191 193 193 191 196 206 212 210 207 206 206 208 212 215 219 220 222 223 226 229 231 233 236 239 239 240 243 245 246 248 250 253 255 257 261 262 264 265 267 269 272 274 274
128 167 184 189 190 192 201 203 206 207 207 210 211 215 218 221 223 223 225 228 231 234 236 239 241 242 244 246 248 250 251 252 254 256 258 260 263 264 266 267 269 271 273 274
98 159 188 195 195 196 202 205 206 207 208 213 218 220 219 221 224 227 230 231 234 238 239 241 243 244 246 248 250 252 253 254 255 257 259 262 263 266 268 268 270 271 273 275
41 132 181 193 203 204 205 206 205 207 212 215 219 223 222 224 227 229 232 235 240 242 244 245 247 248 248 250 252 253 254 255 257 259 260 262 264 266 270 271 270 271 273 275
46 72 174 192 201 207 208 211 208 209 214 218 221 224 224 228 229 230 233 238 242 245 247 249 250 252 251 251 253 254 255 257 259 260 261 263 265 267 270 272 271 272 273 275
31 28 195 201 206 216 217 216 216 215 217 222 225 233 231 232 235 236 238 241 245 248 250 251 252 254 253 254 256 257 257 260 261 262 263 265 267 268 270 272 273 274 275 276
9 9 255 225 227 233 229 223 223 224 225 226 229 237 241 241 242 243 244 246 249 252 254 255 255 256 256 256 258 259 260 262 264 265 266 267 268 269 271 273 275 275 277 278
347 325 278 242 243 241 237 235 236 239 237 237 239 244 247 246 247 248 249 249 251 254 255 257 257 258 260 261 261 261 262 262 264 266 267 268 269 271 273 274 276 278 279 280
339 319 278 252 249 243 236 236 242 250 252 250 249 252 254 252 251 251 251 251 253 254 257 258 260 260 262 264 263 262 263 263 265 267 268 269 271 273 275 277 278 279 280 281
323 311 284 267 259 254 247 244 246 253 258 258 257 257 256 255 255 254 253 254 255 257 259 260 261 262 264 265 265 264 265 266 267 269 270 271 272 274 276 278 280 281 282 282
312 306 291 279 271 267 261 258 257 258 261 263 263 262 262 261 260 259 258 258 258 260 261 264 265 265 266 266 267 268 267 267 269 272 273 273 274 276 278 279 280 282 282 282
304 299 291 282 277 272 268 265 266 266 266 268 269 268 266 266 265 264 262 262 262 264 266 267 269 268 268 268 270 270 269 269 271 274 275 276 277 278 280 281 282 283 283 283
301 298 291 283 278 276 273 271 269 269 270 271 272 272 270 269 267 266 267 268 268 268 269 270 271 272 272 272 273 273 271 272 273 276 277 277 278 280 281 282 283 283 284 285
297 296 293 288 285 282 278 274 273 274 275 274 274 272 271 269 269 270 271 271 270 269 269 270 272 274 275 275 276 276 274 274 275 278 279 279 280 281 282 284 285 285 286 286
292 291 290 289 287 284 280 278 277 277 278 277 276 273 271 269 269 271 272 273 271 270 270 272 275 277 278 279 279 279 279 278 279 280 281 281 282 283 284 285 286 286 286 286
288 289 287 286 285 284 283 281 279 279 278 278 277 276 271 270 272 272 272 273 273 273 272 273 276 279 281 282 283 283 283 283 282 282 282 282 284 286 287 287 287 287 287 287
286 286 286 285 283 282 283 282 280 280 279 278 279 277 273 274 274 273 273 274 274 275 276 277 278 281 282 284 285 286 285 285 285 284 284 285 286 287 288 288 288 288 288 288
284 284 284 284 282 282 284 283 281 280 279 279 280 278 277 276 275 275 275 275 276 276 278 280 281 283 284 285 286 287 288 288 288 288 288 288 287 288 289 289 289 289 289 289
281 283 284 284 284 284 283 283 281 280 279 280 280 279 279 278 277 277 276 277 278 279 280 282 284 285 286 286 287 289 290 290 290 291 291 291 290 290 290 290 290 289 289 288
281 281 282 284 284 284 284 283 281 280 280 280 280 280 279 278 278 278 277 279 280 281 283 284 285 287 288 288 288 289 291 292 292 292 293 293 292 292 292 292 291 290 290 289
279 280 281 282 283 284 284 283 282 281 282 281 280 280 279 279 279 279 279 280 281 282 283 285 286 287 288 289 289 290 291 292 293 294 294 294 294 294 294 294 293 291 291 290
278 279 279 280 281 284 283 282 281 280 280 281 281 281 281 280 280 280 280 281 281 282 284 285 286 287 288 289 290 290 291 292 293 294 294 295 295 295 295 294 293 292 292 292
276 277 277 278 280 281 281 281 280 280 280 281 281 281 281 281 280 280 280 281 282 284 284 285 286 288 289 290 290 290 291 292 293 293 294 295 295 296 295 295 294 293 293 293
274 275 276 277 277 277 278 278 279 280 280 280 281 281 282 281 281 281 282 282 283 284 285 286 287 288 289 290 290 291 291 292 292 293 294 294 295 296 296 296 295 295 295 294
274 274 274 274 275 275 276 278 279 280 280 280 281 281 282 281 281 281 282 283 283 284 285 286 287 289 290 290 291 291 292 293 293 293 294 294 295 296 297 297 297 297 296 296
274 273 273 273 273 274 276 277 278 279 280 280 280 281 281 281 281 281 281 282 283 284 285 286 288 289 290 291 291 292 292 293 293 294 294 295 296 297 297 297 298 298 298 297
Height
5681 5683 5684 5686 5689 5692 5694 5697 5701 5704 5708 5712 5717 5721 5725 5729 5733 5737 5741 5744 5747 5750 5753 5756 5759 5761 5764 5767 5770 5772 5775 5776 5778 5779 5780 5781 5782 5782 5783 5783 5784 5784 5783 5783
5684 5685 5687 5688 5690 5693 5695 5698 5701 5705 5708 5712 5716 5720 5723 5727 5731 5734 5738 5741 5744 5747 5750 5752 5754 5757 5759 5762 5764 5766 5768 5770 5771 5772 5773 5774 5775 5775 5776 5776 5776 5776 5776 5776
5687 5689 5689 5690 5692 5694 5697 5700 5702 5705 5708 5711 5715 5719 5722 5725 5728 5732 5735 5738 5740 5743 5746 5748 5750 5752 5754 5756 5758 5760 5761 5762 5764 5765 5766 5767 5768 5768 5768 5769 5769 5769 5768 5768
5690 5690 5691 5693 5694 5696 5698 5701 5703 5706 5709 5711 5715 5718 5721 5723 5726 5729 5732 5735 5737 5739 5741 5743 5745 5747 5748 5750 5752 5753 5754 5755 5756 5758 5759 5760 5760 5760 5761 5761 5761 5761 5760 5760
5693 5693 5693 5695 5696 5698 5699 5701 5703 5705 5708 5711 5714 5716 5720 5722 5724 5727 5729 5731 5733 5735 5737 5738 5740 5741 5742 5744 5745 5746 5747 5748 5749 5751 5751 5752 5752 5752 5752 5752 5752 5752 5752 5751
5695 5695 5696 5696 5698 5699 5700 5702 5704 5705 5707 5710 5712 5715 5718 5720 5722 5724 5726 5727 5729 5730 5732 5733 5734 5735 5737 5738 5739 5740 5741 5742 5742 5743 5744 5744 5744 5745 5745 5744 5744 5744 5743 5742
5698 5698 5698 5698 5699 5700 5701 5703 5704 5705 5707 5709 5711 5712 5716 5717 5719 5720 5722 5724 5725 5726 5727 5728 5729 5730 5731 5732 5733 5734 5734 5735 5735 5736 5736 5736 5737 5737 5736 5736 5736 5735 5735 5733
5699 5699 5699 5699 5700 5701 5701 5703 5705 5706 5707 5708 5710 5711 5714 5715 5715 5716 5718 5719 5721 5722 5722 5723 5724 5724 5725 5726 5727 5727 5728 5728 5729 5729 5729 5729 5729 5729 5728 5728 5727 5727 5726 5724
5700 5700 5700 5700 5701 5701 5702 5702 5704 5705 5705 5707 5708 5709 5711 5711 5712 5713 5714 5715 5716 5717 5717 5718 5718 5719 5719 5720 5720 5721 5721 5721 5721 5721 5721 5721 5721 5720 5720 5719 5718 5717 5716 5715
5701 5701 5701 5701 5701 5701 5702 5702 5703 5703 5703 5704 5706 5706 5708 5708 5708 5709 5710 5710 5711 5712 5712 5713 5713 5713 5713 5713 5714 5714 5714 5714 5714 5714 5714 5713 5713 5712 5711 5710 5709 5707 5706 5704
5701 5701 5701 5701 5700 5700 5701 5701 5701 5701 5702 5702 5703 5706 5704 5704 5704 5705 5705 5705 5706 5706 5707 5707 5707 5707 5707 5707 5707 5707 5707 5707 5706 5706 5705 5704 5704 5703 5702 5700 5699 5698 5696 5694
5701 5701 5700 5700 5700 5699 5699 5699 5699 5700 5699 5699 5699 5704 5700 5700 5700 5700 5700 5700 5700 5701 5701 5701 5701 5701 5701 5700 5700 5699 5699 5698 5698 5697 5696 5696 5695 5693 5692 5691 5689 5687 5685 5683
5700 5700 5699 5699 5700 5699 5697 5697 5696 5696 5696 5696 5696 5700 5696 5696 5695 5695 5696 5695 5696 5696 5695 5695 5695 5694 5694 5693 5692 5691 5691 5690 5690 5689 5688 5686 5685 5684 5682 5680 5678 5676 5674 5672
5698 5698 5698 5698 5696 5695 5695 5695 5694 5693 5693 5693 5693 5694 5693 5691 5691 5691 5691 5691 5690 5690 5690 5689 5688 5688 5687 5686 5685 5684 5683 5682 5681 5680 5679 5677 5675 5673 5671 5669 5667 5665 5663 5660
5696 5696 5694 5694 5693 5692 5692 5691 5690 5689 5689 5689 5689 5689 5688 5687 5686 5686 5686 5685 5685 5684 5684 5683 5682 5681 5680 5679 5678 5676 5675 5674 5672 5671 5669 5667 5665 5663 5661 5659 5656 5654 5651 5649
5692 5692 5691 5691 5689 5688 5688 5687 5686 5685 5685 5684 5684 5684 5683 5681 5681 5681 5680 5680 5679 5678 5677 5676 5675 5674 5673 5671 5670 5668 5666 5665 5663 5661 5659 5657 5655 5652 5650 5647 5645 5642 5639 5637
5688 5687 5686 5686 5684 5683 5684 5684 5682 5681 5680 5679 5678 5679 5676 5676 5675 5675 5674 5674 5673 5672 5671 5670 5668 5667 5665 5664 5662 5660 5657 5655 5653 5651 5649 5646 5644 5641 5638 5636 5633 5630 5627 5624
5683 5681 5680 5680 5680 5679 5681 5678 5676 5675 5674 5673 5672 5672 5671 5670 5669 5669 5668 5667 5666 5665 5663 5662 5660 5659 5657 5655 5653 5650 5648 5645 5643 5640 5638 5635 5632 5630 5627 5624 5621 5618 5615 5612
5677 5675 5674 5673 5672 5672 5673 5672 5669 5668 5668 5667 5666 5665 5664 5663 5663 5662 5661 5660 5658 5657 5656 5654 5652 5650 5648 5646 5643 5641 5638 5635 5633 5630 5627 5624 5621 5618 5615 5612 5609 5605 5602 5599
5670 5669 5668 5666 5665 5665 5667 5665 5662 5662 5662 5661 5659 5658 5657 5656 5656 5655 5653 5652 5650 5649 5647 5645 5643 5641 5638 5636 5634 5631 5628 5625 5622 5619 5616 5613 5609 5606 5603 5600 5596 5593 5589 5586
5663 5662 5661 5659 5657 5658 5659 5657 5655 5655 5655 5653 5651 5650 5649 5648 5647 5646 5645 5643 5642 5640 5638 5636 5633 5631 5629 5626 5623 5621 5618 5615 5611 5608 5605 5601 5598 5594 5591 5587 5584 5580 5577 5574
5655 5654 5653 5652 5650 5653 5650 5648 5647 5646 5645 5643 5642 5641 5640 5639 5638 5637 5635 5634 5632 5630 5628 5626 5624 5621 5618 5616 5613 5610 5607 5604 5601 5597 5594 5590 5586 5582 5579 5575 5571 5568 5564 5561
5646 5646 5644 5645 5645 5643 5641 5639 5638 5637 5636 5635 5634 5632 5631 5630 5629 5627 5626 5624 5622 5620 5618 5616 5613 5611 5608 5605 5602 5599 5596 5593 5590 5586 5582 5579 5575 5571 5567 5563 5559 5555 5551 5548
5636 5635 5635 5635 5635 5633 5631 5629 5628 5627 5626 5625 5624 5623 5622 5620 5619 5618 5616 5614 5612 5610 5608 5605 5603 5600 5597 5594 5591 5588 5585 5581 5578 5574 5571 5567 5563 5559 5554 5550 5546 5542 5538 5534
5626 5625 5624 5624 5624 5622 5621 5619 5618 5617 5617 5616 5615 5613 5612 5610 5609 5607 5605 5603 5601 5599 5597 5594 5592 5589 5586 5583 5580 5576 5573 5570 5566 5562 5559 5555 5551 5547 5542 5538 5533 5529 5524 5519
5616 5614 5613 5613 5612 5610 5611 5609 5608 5607 5606 5605 5604 5603 5601 5600 5598 5596 5594 5592 5590 5588 5586 5583 5580 5577 5574 5571 5568 5564 5561 5557 5553 5550 5546 5542 5538 5533 5529 5525 5521 5515 5510 5506